| time (UTC) | temp F | wind direction | speed MPH | gust MPH | rain 1hr in | rain 24hr in | rain mn in | humidity % | barometer mb |
| 20260504185524 | 81 | 221 | 7.0 | 15.0 | 0.00 | 0.00 | 0.00 | 39 | 1014.9 |
| 20260504185003 | 81 | 202 | 7.0 | 16.0 | 0.00 | 0.00 | 0.00 | 39 | 1015.0 |
| 20260504184503 | 81 | 204 | 7.0 | 16.0 | 0.00 | 0.00 | 0.00 | 40 | 1015.0 |
| 20260504184003 | 81 | 212 | 7.0 | 16.0 | 0.00 | 0.00 | 0.00 | 39 | 1015.0 |
| 20260504183503 | 81 | 201 | 7.0 | 17.0 | 0.00 | 0.00 | 0.00 | 39 | 1015.0 |
| 20260504183003 | 81 | 204 | 7.0 | 17.0 | 0.00 | 0.00 | 0.00 | 39 | 1015.0 |
| 20260504182503 | 80 | 211 | 9.0 | 22.0 | 0.00 | 0.00 | 0.00 | 39 | 1015.0 |
| 20260504182003 | 80 | 211 | 9.0 | 22.0 | 0.00 | 0.00 | 0.00 | 39 | 1015.0 |
| 20260504181503 | 80 | 208 | 6.0 | 17.0 | 0.00 | 0.00 | 0.00 | 41 | 1015.1 |
| 20260504181003 | 80 | 206 | 6.0 | 17.0 | 0.00 | 0.00 | 0.00 | 40 | 1015.3 |
| 20260504180503 | 80 | 193 | 5.0 | 13.0 | 0.00 | 0.00 | 0.00 | 39 | 1015.2 |
| 20260504180003 | 80 | 196 | 4.0 | 12.0 | 0.00 | 0.00 | 0.00 | 40 | 1015.3 |
| 20260504175503 | 80 | 230 | 6.0 | 14.0 | 0.00 | 0.00 | 0.00 | 40 | 1015.4 |
| 20260504175003 | 80 | 224 | 7.0 | 14.0 | 0.00 | 0.00 | 0.00 | 39 | 1015.5 |
| 20260504174503 | 80 | 219 | 6.0 | 14.0 | 0.00 | 0.00 | 0.00 | 41 | 1015.5 |
| 20260504174003 | 80 | 206 | 7.0 | 15.0 | 0.00 | 0.00 | 0.00 | 40 | 1015.6 |
| 20260504173503 | 80 | 206 | 6.0 | 16.0 | 0.00 | 0.00 | 0.00 | 41 | 1015.7 |
| 20260504173003 | 79 | 222 | 6.0 | 16.0 | 0.00 | 0.00 | 0.00 | 41 | 1015.9 |
| 20260504172503 | 79 | 217 | 9.0 | 21.0 | 0.00 | 0.00 | 0.00 | 41 | 1015.6 |
| 20260504172003 | 79 | 208 | 9.0 | 21.0 | 0.00 | 0.00 | 0.00 | 39 | 1016.0 |
| 20260504171524 | 79 | 205 | 7.0 | 17.0 | 0.00 | 0.00 | 0.00 | 41 | 1016.0 |
| 20260504171024 | 79 | 223 | 7.0 | 17.0 | 0.00 | 0.00 | 0.00 | 40 | 1016.0 |
| 20260504170524 | 80 | 221 | 6.0 | 19.0 | 0.00 | 0.00 | 0.00 | 38 | 1016.0 |
| 20260504151003 | 72 | 217 | 6.0 | 15.0 | 0.00 | 0.00 | 0.00 | 54 | 1016.5 |
| 20260504150524 | 72 | 222 | 6.0 | 15.0 | 0.00 | 0.00 | 0.00 | 56 | 1016.5 |
| 20260504141003 | 64 | 229 | 2.0 | 9.0 | 0.00 | 0.00 | 0.00 | 73 | 1017.0 |
| 20260504140503 | 64 | 224 | 2.0 | 9.0 | 0.00 | 0.00 | 0.00 | 74 | 1017.0 |
| 20260504130524 | 58 | 195 | 1.0 | 5.0 | 0.00 | 0.00 | 0.00 | 81 | 1016.9 |
| 20260504110503 | 58 | 234 | 1.0 | 3.0 | 0.00 | 0.00 | 0.00 | 75 | 1016.5 |
| 20260504100524 | 59 | 222 | 2.0 | 7.0 | 0.00 | 0.00 | 0.00 | 75 | 1016.4 |
| 20260504082003 | 58 | 215 | 2.0 | 7.0 | 0.00 | 0.00 | 0.00 | 79 | 1016.4 |
| 20260504081503 | 58 | 227 | 2.0 | 6.0 | 0.00 | 0.00 | 0.00 | 79 | 1016.5 |
| 20260504081003 | 58 | 222 | 2.0 | 6.0 | 0.00 | 0.00 | 0.00 | 79 | 1016.5 |
| 20260504080503 | 58 | 216 | 2.0 | 6.0 | 0.00 | 0.00 | 0.00 | 80 | 1016.5 |
| 20260504050503 | 59 | 0 | 0.0 | 0.0 | 0.00 | 0.00 | 0.00 | 77 | 1017.6 |
| 20260504050004 | 59 | 0 | 0.0 | 0.0 | 0.00 | 0.00 | 0.00 | 77 | 1017.6 |
| 20260504045503 | 59 | 0 | 0.0 | 0.0 | 0.00 | 0.00 | 0.00 | 77 | 1017.6 |
| 20260504045003 | 60 | 221 | 0.0 | 1.0 | 0.00 | 0.00 | 0.00 | 77 | 1017.6 |
| 20260504044503 | 60 | 221 | 0.0 | 1.0 | 0.00 | 0.00 | 0.00 | 76 | 1017.6 |
| 20260504044003 | 60 | 221 | 0.0 | 1.0 | 0.00 | 0.00 | 0.00 | 76 | 1017.6 |
| 20260504043503 | 60 | 0 | 0.0 | 0.0 | 0.00 | 0.00 | 0.00 | 75 | 1017.6 |
| 20260504043024 | 60 | 0 | 0.0 | 0.0 | 0.00 | 0.00 | 0.00 | 75 | 1017.6 |
| 20260504042503 | 60 | 221 | 0.0 | 2.0 | 0.00 | 0.00 | 0.00 | 75 | 1017.6 |
| 20260504042003 | 60 | 221 | 0.0 | 2.0 | 0.00 | 0.00 | 0.00 | 74 | 1017.6 |
| 20260504041503 | 60 | 221 | 0.0 | 2.0 | 0.00 | 0.00 | 0.00 | 74 | 1017.6 |
| 20260504041003 | 61 | 221 | 0.0 | 1.0 | 0.00 | 0.00 | 0.00 | 74 | 1017.6 |
| 20260504040503 | 61 | 221 | 0.0 | 1.0 | 0.00 | 0.00 | 0.00 | 74 | 1017.6 |
| 20260504040003 | 61 | 0 | 0.0 | 0.0 | 0.00 | 0.00 | 0.00 | 73 | 1017.7 |
| 20260504035503 | 61 | 0 | 0.0 | 0.0 | 0.00 | 0.00 | 0.00 | 73 | 1017.7 |
| 20260504035003 | 61 | 0 | 0.0 | 0.0 | 0.00 | 0.00 | 0.00 | 73 | 1017.7 |
| 20260504034503 | 62 | 0 | 0.0 | 0.0 | 0.00 | 0.00 | 0.00 | 73 | 1017.7 |
| 20260504034003 | 62 | 0 | 0.0 | 0.0 | 0.00 | 0.00 | 0.00 | 72 | 1017.7 |
| 20260504033504 | 62 | 0 | 0.0 | 0.0 | 0.00 | 0.00 | 0.00 | 72 | 1017.6 |
| 20260504033003 | 62 | 0 | 0.0 | 0.0 | 0.00 | 0.00 | 0.00 | 72 | 1017.6 |
| 20260504032503 | 62 | 0 | 0.0 | 0.0 | 0.00 | 0.00 | 0.00 | 71 | 1017.6 |
| 20260504032003 | 63 | 221 | 0.0 | 1.0 | 0.00 | 0.00 | 0.00 | 71 | 1017.7 |
| 20260504031503 | 63 | 221 | 0.0 | 1.0 | 0.00 | 0.00 | 0.00 | 71 | 1017.7 |
| 20260504031003 | 63 | 221 | 0.0 | 1.0 | 0.00 | 0.00 | 0.00 | 71 | 1017.7 |
| 20260504030503 | 63 | 0 | 0.0 | 0.0 | 0.00 | 0.00 | 0.00 | 70 | 1017.7 |
| 20260504030003 | 64 | 0 | 0.0 | 0.0 | 0.00 | 0.00 | 0.00 | 70 | 1017.7 |
| 20260504025524 | 64 | 221 | 0.0 | 1.0 | 0.00 | 0.00 | 0.00 | 70 | 1017.7 |
| 20260504025003 | 64 | 221 | 0.0 | 1.0 | 0.00 | 0.00 | 0.00 | 69 | 1017.6 |
| 20260504024503 | 64 | 221 | 0.0 | 1.0 | 0.00 | 0.00 | 0.00 | 68 | 1017.6 |
| 20260504024003 | 65 | 221 | 0.0 | 1.0 | 0.00 | 0.00 | 0.00 | 67 | 1017.6 |
| 20260504023503 | 65 | 221 | 0.0 | 1.0 | 0.00 | 0.00 | 0.00 | 67 | 1017.6 |
| 20260504023003 | 65 | 0 | 0.0 | 0.0 | 0.00 | 0.00 | 0.00 | 66 | 1017.6 |
| 20260504022503 | 66 | 0 | 0.0 | 0.0 | 0.00 | 0.00 | 0.00 | 66 | 1017.5 |
| 20260504022003 | 66 | 0 | 0.0 | 0.0 | 0.00 | 0.00 | 0.00 | 65 | 1017.5 |
| 20260504021503 | 66 | 0 | 0.0 | 0.0 | 0.00 | 0.00 | 0.00 | 64 | 1017.5 |
| 20260504021003 | 67 | 0 | 0.0 | 0.0 | 0.00 | 0.00 | 0.00 | 64 | 1017.6 |
| 20260504020503 | 67 | 0 | 0.0 | 0.0 | 0.00 | 0.00 | 0.00 | 64 | 1017.5 |
| 20260504020003 | 68 | 0 | 0.0 | 0.0 | 0.00 | 0.00 | 0.00 | 62 | 1017.4 |
| 20260504015503 | 68 | 0 | 0.0 | 0.0 | 0.00 | 0.00 | 0.00 | 61 | 1017.3 |
| 20260504015003 | 69 | 0 | 0.0 | 0.0 | 0.00 | 0.00 | 0.00 | 61 | 1017.2 |
| 20260504014503 | 69 | 0 | 0.0 | 0.0 | 0.00 | 0.00 | 0.00 | 60 | 1017.1 |
| 20260504014003 | 70 | 0 | 0.0 | 0.0 | 0.00 | 0.00 | 0.00 | 59 | 1017.1 |
| 20260504013503 | 70 | 0 | 0.0 | 0.0 | 0.00 | 0.00 | 0.00 | 57 | 1017.1 |
| 20260504013003 | 71 | 0 | 0.0 | 0.0 | 0.00 | 0.00 | 0.00 | 58 | 1017.1 |
| 20260504012503 | 71 | 0 | 0.0 | 0.0 | 0.00 | 0.00 | 0.00 | 56 | 1017.1 |
| 20260504012003 | 72 | 0 | 0.0 | 0.0 | 0.00 | 0.00 | 0.00 | 55 | 1017.1 |
| 20260504011503 | 72 | 0 | 0.0 | 0.0 | 0.00 | 0.00 | 0.00 | 55 | 1017.0 |
| 20260504011003 | 73 | 0 | 0.0 | 0.0 | 0.00 | 0.00 | 0.00 | 54 | 1017.0 |
| 20260504010503 | 74 | 0 | 0.0 | 0.0 | 0.00 | 0.00 | 0.00 | 53 | 1017.0 |
| 20260504010004 | 74 | 0 | 0.0 | 0.0 | 0.00 | 0.00 | 0.00 | 51 | 1017.0 |
| 20260504005503 | 75 | 0 | 0.0 | 0.0 | 0.00 | 0.00 | 0.00 | 50 | 1016.8 |
| 20260504005004 | 76 | 221 | 0.0 | 1.0 | 0.00 | 0.00 | 0.00 | 50 | 1016.7 |
| 20260504004503 | 76 | 221 | 0.0 | 1.0 | 0.00 | 0.00 | 0.00 | 49 | 1016.7 |
| 20260504004003 | 77 | 221 | 0.0 | 1.0 | 0.00 | 0.00 | 0.00 | 47 | 1016.7 |
| 20260504003503 | 77 | 221 | 0.0 | 1.0 | 0.00 | 0.00 | 0.00 | 44 | 1016.6 |
| 20260504003025 | 78 | 221 | 0.0 | 2.0 | 0.00 | 0.00 | 0.00 | 44 | 1016.6 |
| 20260504002503 | 78 | 220 | 1.0 | 3.0 | 0.00 | 0.00 | 0.00 | 42 | 1016.6 |
| 20260504002024 | 79 | 220 | 1.0 | 3.0 | 0.00 | 0.00 | 0.00 | 41 | 1016.7 |
| 20260504001503 | 79 | 219 | 1.0 | 4.0 | 0.00 | 0.00 | 0.00 | 40 | 1016.7 |
| 20260504001003 | 80 | 225 | 1.0 | 4.0 | 0.00 | 0.00 | 0.00 | 39 | 1016.7 |
| 20260504000503 | 80 | 235 | 1.0 | 4.0 | 0.00 | 0.00 | 0.00 | 39 | 1016.7 |
| 20260504000003 | 81 | 236 | 0.0 | 3.0 | 0.00 | 0.00 | 0.00 | 38 | 1016.7 |
| 20260503235503 | 81 | 237 | 0.0 | 2.0 | 0.00 | 0.00 | 0.00 | 37 | 1016.7 |
| 20260503235003 | 81 | 237 | 1.0 | 3.0 | 0.00 | 0.00 | 0.00 | 36 | 1016.8 |
| 20260503234524 | 82 | 239 | 1.0 | 3.0 | 0.00 | 0.00 | 0.00 | 36 | 1016.9 |
| 20260503234003 | 82 | 242 | 1.0 | 6.0 | 0.00 | 0.00 | 0.00 | 35 | 1017.0 |
| 20260503233524 | 82 | 252 | 2.0 | 6.0 | 0.00 | 0.00 | 0.00 | 34 | 1017.0 |
| 20260503233003 | 82 | 250 | 2.0 | 5.0 | 0.00 | 0.00 | 0.00 | 35 | 1017.0 |
| 20260503232503 | 82 | 233 | 3.0 | 6.0 | 0.00 | 0.00 | 0.00 | 35 | 1017.1 |
| 20260503232003 | 83 | 210 | 2.0 | 6.0 | 0.00 | 0.00 | 0.00 | 35 | 1017.1 |
| 20260503231504 | 83 | 144 | 0.0 | 3.0 | 0.00 | 0.00 | 0.00 | 35 | 1017.1 |
| 20260503231003 | 83 | 112 | 1.0 | 2.0 | 0.00 | 0.00 | 0.00 | 35 | 1017.1 |
| 20260503230503 | 83 | 59 | 1.0 | 3.0 | 0.00 | 0.00 | 0.00 | 36 | 1017.1 |
| 20260503230031 | 83 | 4 | 1.0 | 3.0 | 0.00 | 0.00 | 0.00 | 35 | 1017.1 |
| 20260503225503 | 83 | 324 | 1.0 | 5.0 | 0.00 | 0.00 | 0.00 | 34 | 1017.1 |
| 20260503225003 | 84 | 322 | 2.0 | 5.0 | 0.00 | 0.00 | 0.00 | 34 | 1017.1 |
| 20260503224503 | 84 | 324 | 2.0 | 5.0 | 0.00 | 0.00 | 0.00 | 34 | 1017.1 |
| 20260503224003 | 84 | 288 | 2.0 | 6.0 | 0.00 | 0.00 | 0.00 | 34 | 1017.1 |
| 20260503223503 | 84 | 260 | 2.0 | 6.0 | 0.00 | 0.00 | 0.00 | 32 | 1017.1 |
| 20260503223024 | 84 | 249 | 1.0 | 6.0 | 0.00 | 0.00 | 0.00 | 33 | 1017.1 |
| 20260503222503 | 84 | 235 | 2.0 | 5.0 | 0.00 | 0.00 | 0.00 | 33 | 1017.1 |
| 20260503222003 | 84 | 263 | 3.0 | 6.0 | 0.00 | 0.00 | 0.00 | 33 | 1017.2 |
| 20260503221503 | 84 | 274 | 2.0 | 6.0 | 0.00 | 0.00 | 0.00 | 33 | 1017.3 |
| 20260503221003 | 84 | 248 | 2.0 | 7.0 | 0.00 | 0.00 | 0.00 | 33 | 1017.4 |
| 20260503220525 | 84 | 242 | 3.0 | 9.0 | 0.00 | 0.00 | 0.00 | 33 | 1017.4 |
| 20260503220003 | 84 | 286 | 3.0 | 9.0 | 0.00 | 0.00 | 0.00 | 32 | 1017.5 |
| 20260503215503 | 84 | 340 | 2.0 | 5.0 | 0.00 | 0.00 | 0.00 | 33 | 1017.5 |
| 20260503215003 | 84 | 353 | 2.0 | 7.0 | 0.00 | 0.00 | 0.00 | 33 | 1017.6 |
| 20260503214503 | 84 | 345 | 2.0 | 7.0 | 0.00 | 0.00 | 0.00 | 34 | 1017.6 |
| 20260503214024 | 84 | 276 | 2.0 | 4.0 | 0.00 | 0.00 | 0.00 | 33 | 1017.7 |
| 20260503213503 | 84 | 216 | 2.0 | 6.0 | 0.00 | 0.00 | 0.00 | 34 | 1017.7 |
| 20260503213025 | 84 | 221 | 2.0 | 6.0 | 0.00 | 0.00 | 0.00 | 35 | 1017.8 |
| 20260503212503 | 84 | 253 | 3.0 | 9.0 | 0.00 | 0.00 | 0.00 | 33 | 1018.1 |
| 20260503212003 | 84 | 269 | 4.0 | 9.0 | 0.00 | 0.00 | 0.00 | 34 | 1018.1 |
| 20260503211503 | 84 | 331 | 4.0 | 9.0 | 0.00 | 0.00 | 0.00 | 35 | 1018.2 |
| 20260503211003 | 83 | 332 | 4.0 | 7.0 | 0.00 | 0.00 | 0.00 | 34 | 1018.2 |
| 20260503210503 | 83 | 314 | 3.0 | 7.0 | 0.00 | 0.00 | 0.00 | 35 | 1018.3 |
| 20260503210003 | 83 | 271 | 4.0 | 7.0 | 0.00 | 0.00 | 0.00 | 34 | 1018.5 |
| 20260503205503 | 83 | 286 | 4.0 | 9.0 | 0.00 | 0.00 | 0.00 | 34 | 1018.6 |
| 20260503205003 | 83 | 327 | 4.0 | 11.0 | 0.00 | 0.00 | 0.00 | 34 | 1018.6 |
| 20260503204503 | 83 | 326 | 3.0 | 11.0 | 0.00 | 0.00 | 0.00 | 34 | 1018.6 |
| 20260503204003 | 83 | 335 | 2.0 | 7.0 | 0.00 | 0.00 | 0.00 | 35 | 1018.7 |
| 20260503203503 | 83 | 297 | 2.0 | 7.0 | 0.00 | 0.00 | 0.00 | 37 | 1018.7 |
| 20260503203003 | 83 | 254 | 2.0 | 7.0 | 0.00 | 0.00 | 0.00 | 35 | 1018.9 |
| 20260503202524 | 83 | 289 | 3.0 | 9.0 | 0.00 | 0.00 | 0.00 | 34 | 1019.0 |
| 20260503202024 | 83 | 259 | 4.0 | 9.0 | 0.00 | 0.00 | 0.00 | 35 | 1019.0 |
| 20260503201503 | 83 | 239 | 4.0 | 11.0 | 0.00 | 0.00 | 0.00 | 35 | 1019.1 |
| 20260503201003 | 83 | 267 | 3.0 | 11.0 | 0.00 | 0.00 | 0.00 | 35 | 1019.2 |
| 20260503200503 | 83 | 270 | 3.0 | 11.0 | 0.00 | 0.00 | 0.00 | 36 | 1019.2 |
| 20260503200003 | 82 | 286 | 3.0 | 11.0 | 0.00 | 0.00 | 0.00 | 35 | 1019.3 |
| 20260503195503 | 82 | 322 | 3.0 | 9.0 | 0.00 | 0.00 | 0.00 | 37 | 1019.6 |
| 20260503195003 | 82 | 305 | 3.0 | 11.0 | 0.00 | 0.00 | 0.00 | 36 | 1019.6 |
| 20260503194503 | 82 | 244 | 4.0 | 11.0 | 0.00 | 0.00 | 0.00 | 37 | 1019.7 |
| 20260503194024 | 82 | 231 | 3.0 | 8.0 | 0.00 | 0.00 | 0.00 | 37 | 1019.7 |
| 20260503193503 | 82 | 263 | 2.0 | 6.0 | 0.00 | 0.00 | 0.00 | 36 | 1019.7 |
| 20260503193004 | 82 | 242 | 3.0 | 10.0 | 0.00 | 0.00 | 0.00 | 36 | 1019.8 |
| 20260503192503 | 82 | 245 | 4.0 | 12.0 | 0.00 | 0.00 | 0.00 | 37 | 1020.1 |
| 20260503192003 | 82 | 244 | 4.0 | 12.0 | 0.00 | 0.00 | 0.00 | 36 | 1020.1 |
| 20260503191503 | 82 | 229 | 4.0 | 11.0 | 0.00 | 0.00 | 0.00 | 37 | 1020.2 |
| 20260503191003 | 82 | 285 | 5.0 | 11.0 | 0.00 | 0.00 | 0.00 | 36 | 1020.2 |
| 20260503190504 | 82 | 316 | 4.0 | 11.0 | 0.00 | 0.00 | 0.00 | 37 | 1020.2 |
| 20260503190004 | 82 | 269 | 3.0 | 8.0 | 0.00 | 0.00 | 0.00 | 36 | 1020.3 |